Manhattan, KS

6:05 PM CDT on October 19, 2019 (GMT -0500)
Manhattan Regional

Weather History for KMHK - September, 2019

Change the Weather History Date:

Friday, September 20, 2019

  Actual Average Record
Temperature  
Mean Temperature 75 °F 66 °F  
Max Temperature 80 °F 79 °F 94 °F (2016)
Min Temperature 70 °F 53 °F 37 °F (1999)
Degree Days  
Heating Degree Days 0 3  
Month to date heating degree days 0 24  
Since 1 July heating degree days 0 27  
Cooling Degree Days 10 4  
Month to date cooling degree days 277 125  
Year to date cooling degree days 1504 1308  
Growing Degree Days 26 (Base 50)    
Moisture  
Dew Point 69 °F    
Average Humidity 80    
Maximum Humidity 90    
Minimum Humidity 69    
Precipitation  
Precipitation T in 0.10 in 1.17 in (1998)
Month to date precipitation 0.97 2.30  
Year to date precipitation 36.67 26.84  
Sea Level Pressure  
Sea Level Pressure 29.92 in    
Wind  
Wind Speed 9 mph (SSE)    
Max Wind Speed 18 mph    
Max Gust Speed 25 mph    
Visibility 10 miles    
Events      
T = Trace of Precipitation, MM = Missing Value Source: NWS Daily Summary

Daily Weather History Graph

Daily Weather History Graph

Search for Another Location

Airport or City:

Astronomy

Sep. 20, 2019 Rise Set
Actual Time 7:12 AM CDT 7:27 PM CDT
Civil Twilight 6:45 AM CDT 7:53 PM CDT
Nautical Twilight 6:14 AM CDT 8:25 PM CDT
Astronomical Twilight 5:42 AM CDT 8:57 PM CDT
Moon 11:20 PM CDT (9/20) 1:15 PM CDT (9/20)
Length of Visible Light 13h 08m
Length of Day
12h 14m
Waning Gibbous, 65% of the Moon is Illuminated
Sep 20
Waning Gibbous
Sep 21
Last Quarter
Sep 28
New
Oct 5
First Quarter
Oct 13
Full

Hourly Weather History & Observations

Time (CDT) Temp. Heat Index Dew Point Humidity Pressure Visibility Wind Dir Wind Speed Gust Speed Precip Events Conditions
12:52 AM 73.9 °F - 69.1 °F 85% 29.94 in 10.0 mi Calm Calm - N/A   Clear
1:52 AM 73.0 °F - 69.1 °F 87% 29.95 in 10.0 mi Calm Calm - N/A   Clear
2:52 AM 72.0 °F - 68.0 °F 87% 29.95 in 10.0 mi Calm Calm - N/A   Clear
3:52 AM 72.0 °F - 68.0 °F 87% 29.94 in 10.0 mi Calm Calm - N/A   Clear
4:52 AM 72.0 °F - 66.9 °F 84% 29.92 in 10.0 mi Calm Calm - N/A   Clear
5:52 AM 73.0 °F - 66.9 °F 81% 29.91 in 10.0 mi SSE 5.8 mph - N/A   Clear
6:52 AM 72.0 °F - 66.9 °F 84% 29.94 in 10.0 mi WNW 3.5 mph - N/A   Clear
7:52 AM 72.0 °F - 66.9 °F 84% 29.95 in 10.0 mi South 5.8 mph - N/A   Clear
8:52 AM 75.9 °F - 69.1 °F 79% 29.96 in 10.0 mi SSE 10.4 mph - N/A   Clear
9:52 AM 78.1 °F - 68.0 °F 71% 29.96 in 10.0 mi South 17.3 mph 24.2 mph N/A   Clear
10:52 AM 79.0 °F - 69.1 °F 72% 29.96 in 10.0 mi SSE 11.5 mph - N/A   Partly Cloudy
11:22 AM 79.0 °F - 68.0 °F 69% 29.99 in 10.0 mi SSE 13.8 mph - N/A   Mostly Cloudy
11:52 AM 80.1 °F 82.9 °F 69.1 °F 69% 29.96 in 10.0 mi South 18.4 mph - N/A   Overcast
12:52 PM 78.1 °F - 68.0 °F 71% 29.94 in 10.0 mi South 13.8 mph - N/A   Overcast
1:48 PM 78.8 °F - 68.0 °F 69% 29.96 in 10.0 mi SSE 15.0 mph 19.6 mph N/A   Overcast
1:52 PM 77.0 °F - 68.0 °F 74% 29.93 in 10.0 mi South 16.1 mph 20.7 mph N/A   Overcast
2:52 PM 78.1 °F - 69.1 °F 74% 29.92 in 10.0 mi South 15.0 mph 24.2 mph 0.00 in   Overcast
3:52 PM 75.0 °F - 69.1 °F 82% 29.91 in 10.0 mi SSE 11.5 mph - N/A   Overcast
4:52 PM 77.0 °F - 68.0 °F 74% 29.89 in 10.0 mi SSE 16.1 mph 24.2 mph N/A   Overcast
5:52 PM 77.0 °F - 69.1 °F 76% 29.88 in 10.0 mi SSE 10.4 mph 17.3 mph N/A   Overcast
6:21 PM 75.9 °F - 69.1 °F 79% 29.90 in 10.0 mi SSE 9.2 mph - N/A   Overcast
6:52 PM 75.9 °F - 69.1 °F 79% 29.88 in 10.0 mi SSE 10.4 mph - N/A   Overcast
7:32 PM 73.9 °F - 69.1 °F 85% 29.90 in 10.0 mi South 11.5 mph - N/A   Overcast
7:52 PM 75.0 °F - 69.1 °F 82% 29.88 in 10.0 mi South 9.2 mph - N/A   Overcast
8:30 PM 75.0 °F - 69.1 °F 82% 29.90 in 10.0 mi SSE 9.2 mph - N/A   Overcast
8:52 PM 73.9 °F - 69.1 °F 85% 29.88 in 10.0 mi SSE 6.9 mph - N/A   Mostly Cloudy
9:52 PM 73.0 °F - 69.1 °F 87% 29.87 in 10.0 mi SSE 5.8 mph - N/A   Partly Cloudy
10:27 PM 73.9 °F - 70.0 °F 87% 29.91 in 10.0 mi SSE 9.2 mph - N/A   Mostly Cloudy
10:52 PM 73.9 °F - 70.0 °F 87% 29.88 in 10.0 mi South 10.4 mph - N/A   Mostly Cloudy
11:35 PM 73.9 °F - 70.0 °F 87% 29.90 in 10.0 mi South 10.4 mph - N/A   Scattered Clouds
11:52 PM 73.9 °F - 70.0 °F 87% 29.88 in 10.0 mi South 9.2 mph 19.6 mph N/A   Mostly Cloudy